Regional Weather Roundup
Issued by NWS

Home | Current Version | Previous Version | Text Only | Print | Product List | Glossary On
Versions: 1 2 3 4 5 6 7 8 9 10 11 12 13 14 15 16 17 18 19 20 21 22 23 24 25 26 27 28 29 30 31 32 33 34 35 36 37 38 39 40 41 42 43 44 45 46 47 48 49 50
000
ASUS43 KLOT 281808
RWRIL

ILLINOIS REGIONAL WEATHER ROUNDUP
NATIONAL WEATHER SERVICE CHICAGO/ROMEOVILLE IL
100 PM CDT SAT MAR 28 2015

NOTE: "FAIR" INDICATES FEW OR NO CLOUDS BELOW 12,000 FEET WITH NO
SIGNIFICANT WEATHER AND/OR OBSTRUCTIONS TO VISIBILITY.

* THESE STATIONS ARE NOT UNDER NWS QUALITY CONTROL. THEY ALSO MAY NOT
  REPORT WEATHER SUCH AS PRECIPITATION OR FOG.

ILZ001-002-007-009-015-016-024-281900-
NORTHWEST ILLINOIS

CITY           SKY/WX    TMP DP  RH WIND       PRES   REMARKS
MOLINE         SUNNY     38  10  31 SE6       30.32F WCI  33
6HR MIN TEMP:  17; 6HR MAX TEMP:  38;

STERLING*      SUNNY     37  12  35 S6        30.34F WCI  33
SAVANNA*       SUNNY     37  14  37 W8        30.33F WCI  31
$$

ILZ003-004-008-010-011-017-018-281900-
NORTH CENTRAL ILLINOIS

CITY           SKY/WX    TMP DP  RH WIND       PRES   REMARKS
ROCKFORD       MOSUNNY   37   9  31 VRB3      30.34F
6HR MIN TEMP:  16; 6HR MAX TEMP:  37;

FREEPORT*      SUNNY     34  10  36 SW5       30.34F WCI  29
ROCHELLE*      SUNNY     35  12  39 E8        30.33F WCI  28
DE KALB*       SUNNY     33  11  41 E6        30.33F WCI  27
PERU*          SUNNY     36  10  34 NE6       30.34F WCI  31
$$

ILZ005-006-012>014-019>023-281900-
NORTHEAST ILLINOIS

CITY           SKY/WX    TMP DP  RH WIND       PRES   REMARKS
CHICAGO-OHARE  MOSUNNY   33   9  36 NE8       30.33F WCI  26
6HR MIN TEMP:  20; 6HR MAX TEMP:  33;

CHICAGO-MIDWAY MOSUNNY   34   9  35 NE8       30.35S WCI  27
6HR MIN TEMP:  25; 6HR MAX TEMP:  35;

AURORA         SUNNY     37   8  30 SE7       30.33F WCI  32
6HR MIN TEMP:  16; 6HR MAX TEMP:  37;

LANSING*       SUNNY     32   7  35 N7        30.35S WCI  25
JOLIET*        SUNNY     37  10  32 N9        30.33F WCI  31
WAUKEGAN       SUNNY     30  15  53 VRB6      30.34S WCI  24
6HR MIN TEMP:  15; 6HR MAX TEMP:  30;

DUPAGE AIRPORT SUNNY     35   6  29 VRB6      30.32F WCI  30
6HR MIN TEMP:  15; 6HR MAX TEMP:  36;

KANKAKEE*      SUNNY     35  10  35 NE8       30.34F WCI  29
WHEELING       SUNNY     31   9  39 E5        30.36S WCI  26
6HR MIN TEMP:  19; 6HR MAX TEMP:  32;

MORRIS*        SUNNY     37  11  35 N5        30.32F WCI  33
ROMEOVILLE*    SUNNY     35   4  28 SE5       30.33F WCI  30
NORTHERLY ISL    N/A     28  14  55 NE7         N/A  WCI  21
$$

LMZ740>746-281900-
SOUTHERN LAKE MICHIGAN

STATION/POSITION SKY/WX   TEMP    WIND        PRES    VSBY  WAVE
                          AIR SEA DIR/SP/G                  HT/PER
                          (F)     (DEG/KT/KT) (MB)    (MI)  (FT/S)
HARRISON CRIB              25      40/  8/ 11   N/A
BURNHAM HARBOR             28      40/  7/  9   N/A
CALUMET HARBOR             26      60/  8/ 12 1026.7S
BURNS HARBOR               24      10/  7/  9 1028.8R
MICHIGAN CITY              24     330/ 12/ 15   N/A
$$

ILZ025>027-034>036-040-047-049-050-058-095>099-281900-
WEST-CENTRAL ILLINOIS

CITY           SKY/WX    TMP DP  RH WIND       PRES   REMARKS
QUINCY         SUNNY     39  16  39 SE10      30.30F WCI  32
GALESBURG*     SUNNY     37  13  37 E9        30.32F WCI  31
MACOMB*        SUNNY     37  13  37 SE6       30.34F WCI  33
JACKSONVILLE*  SUNNY     38  18  44 E6        30.34F WCI  33
PITTSFIELD*    SUNNY     39  19  45 E6        30.32F WCI  35
$$

ILZ028>032-037-038-041>044-048-051>054-059>061-281900-
CENTRAL ILLINOIS

CITY           SKY/WX    TMP DP  RH WIND       PRES   REMARKS
PONTIAC        SUNNY     36  13  38 NE9       30.34F WCI  29
BLOOMINGTON    SUNNY     36  14  40 VRB5      30.33F WCI  32
DECATUR        SUNNY     35  16  45 VRB7      30.34S WCI  29
PEORIA         SUNNY     39  11  31 E7        30.34F WCI  34
6HR MIN TEMP:  23; 6HR MAX TEMP:  39;

LACON*         SUNNY     37  10  32 E3        30.34S
LINCOLN*       SUNNY     37  16  42 S5        30.36S WCI  34
SPRINGFIELD    SUNNY     37  14  38 VRB3      30.35S
6HR MIN TEMP:  22; 6HR MAX TEMP:  38;

TAYLORVILLE    SUNNY     32  18  55 NE5       30.35S WCI  27
$$

ILZ033-039-045-046-055>057-062-063-281900-
EAST-CENTRAL ILLINOIS

CITY           SKY/WX    TMP DP  RH WIND       PRES   REMARKS
CHAMPAIGN      SUNNY     36  13  38 E7        30.32F WCI  30
DANVILLE*      SUNNY     33  13  44 CALM      30.31R
RANTOUL*       SUNNY     35  13  41 E6        30.33S WCI  30
MATTOON        SUNNY     34  17  50 N3        30.32F
PARIS*         SUNNY     34  15  45 CALM      30.34S
$$

ILZ079-100>102-281900-
SOUTHWEST ILLINOIS

CITY           SKY/WX    TMP DP  RH WIND       PRES   REMARKS
BELLEVILLE     SUNNY     39  21  48 VRB3      30.33F
CAHOKIA*       SUNNY     41  21  44 VRB5      30.33F
SPARTA*        SUNNY     37  21  51 E7        30.34F WCI  32
$$

ILZ064>066-069>071-074>076-080>082-084>086-088>090-092>094-281900-
SOUTH-CENTRAL ILLINOIS

CITY           SKY/WX    TMP DP  RH WIND       PRES   REMARKS
CARBONDALE     SUNNY     39  20  46 VRB6      30.34F WCI  35
6HR MIN TEMP:  25; 6HR MAX TEMP:  39;

CAIRO*         SUNNY     42  25  52 SE5       30.33F
EFFINGHAM*     SUNNY     36  13  38 E5        30.36S WCI  32
MARION         MOSUNNY   37  18  44 SW5       30.34F WCI  34
MT. VERNON     SUNNY     37  16  41 NE5       30.34F WCI  34
CENTRALIA*     SUNNY     37  17  45 CALM      30.34S
SALEM*         SUNNY     37  15  40 NE5       30.35S WCI  34
METROPOLIS*    SUNNY     41  23  48 N5        30.33S
$$

ILZ067-068-072-073-078-083-087-091-281900-
SOUTHEAST ILLINOIS

CITY           SKY/WX    TMP DP  RH WIND       PRES   REMARKS
LAWRENCEVILLE  SUNNY     36  17  46 VRB6      30.35S WCI  31
FLORA*         SUNNY     34  16  48 E6        30.35S WCI  29
FAIRFIELD*     SUNNY     35  17  46 NE5       30.34S WCI  31
HARRISBURG*    SUNNY     38  19  46 N5        30.35F WCI  34
ROBINSON*      SUNNY     34  18  51 NW3       30.35F
CARMI*         SUNNY     37  17  45 NW8       30.35S WCI  30
$$

ABBREVIATIONS USED IN REMARKS
   TC - TEMPERATURE IN CELSIUS
  WCI - WIND CHILL INDEX
   HX - HEAT INDEX
  VSB - VISIBILITY
$$




USA.gov is the U.S. government's official web portal to all federal, state and local government web resources and services.